Yatton Keynell, United Kingdom

3:39 AM GMT on March 24, 2019 (GMT +0000)
Yatton Keynell

Weather History for 03740 - July, 2000

Change the Weather History Date:

Sunday, July 23, 2000

  Actual Average Record
Temperature  
Mean Temperature 58 °F -  
Max Temperature 64 °F 68 °F - ()
Min Temperature 53 °F 53 °F - ()
Degree Days  
Heating Degree Days 6    
Growing Degree Days 8 (Base 50)    
Moisture  
Dew Point 52 °F    
Average Humidity 80    
Maximum Humidity 88    
Minimum Humidity 68    
Precipitation  
Precipitation 0.00 in 0.08 in - ()
Sea Level Pressure  
Sea Level Pressure 29.99 in    
Wind  
Wind Speed 13 mph ()    
Max Wind Speed 21 mph    
Max Gust Speed -    
Visibility 6.2 miles    
Events      
T = Trace of Precipitation, MM = Missing Value Source: Averaged Metar Reports

Daily Weather History Graph

Daily Weather History Graph

Search for Another Location

Airport or City:

Astronomy

Jul. 23, 2000 Rise Set
Actual Time 5:18 AM BST 9:09 PM BST
Civil Twilight 4:36 AM BST 9:51 PM BST
Nautical Twilight 3:36 AM BST 10:50 PM BST
Astronomical Twilight 1:51 AM BST 12:30 AM BST
Moon No Moon Rise 12:30 PM BST (7/23)
Length of Visible Light 17h 15m
Length of Day
15h 50m
Waning Gibbous, 61% of the Moon is Illuminated
Jul 23
Waning Gibbous
Jul 24
Last Quarter
Jul 31
New
Aug 7
First Quarter
Aug 15
Full

Hourly Weather History & Observations

Time (BST) Temp. Dew Point Humidity Pressure Visibility Wind Dir Wind Speed Gust Speed Precip Events Conditions
12:50 AM 55.4 °F 50.0 °F 82% 30.06 in 6.2 mi NE 17.3 mph - N/A   Mostly Cloudy
1:50 AM 55.4 °F 50.0 °F 82% 30.06 in 6.2 mi ENE 13.8 mph - N/A   Overcast
2:50 AM 53.6 °F 50.0 °F 88% 30.06 in 6.2 mi ENE 15.0 mph - N/A   Overcast
3:50 AM 53.6 °F 50.0 °F 88% 30.04 in 6.2 mi ENE 11.5 mph - N/A   Overcast
4:50 AM 53.6 °F 48.2 °F 82% 30.04 in 6.2 mi ENE 13.8 mph - N/A   Overcast
5:50 AM 53.6 °F 50.0 °F 88% 30.04 in 6.2 mi ENE 11.5 mph - N/A   Overcast
6:50 AM 53.6 °F 50.0 °F 88% 30.04 in 6.2 mi ENE 13.8 mph - N/A   Light Drizzle
8:50 AM 53.6 °F 50.0 °F 88% 30.04 in 6.2 mi NNE 12.7 mph - N/A   Light Drizzle
9:50 AM 55.4 °F 51.8 °F 88% 30.01 in 6.2 mi NE 16.1 mph - N/A   Light Drizzle
10:50 AM 59.0 °F 51.8 °F 77% 30.01 in 6.2 mi NE 15.0 mph - N/A   Mostly Cloudy
11:50 AM 62.6 °F 51.8 °F 68% 30.01 in 6.2 mi NE 17.3 mph - N/A   Mostly Cloudy
12:50 PM 60.8 °F 51.8 °F 72% 29.98 in 6.2 mi ENE 13.8 mph - N/A   Overcast
1:50 PM 60.8 °F 51.8 °F 72% 29.98 in 6.2 mi ENE 16.1 mph - N/A   Overcast
2:50 PM 60.8 °F 51.8 °F 72% 29.98 in 6.2 mi NE 16.1 mph - N/A   Overcast
3:50 PM 62.6 °F 53.6 °F 72% 29.98 in 6.2 mi ENE 15.0 mph - N/A   Overcast
4:50 PM 64.4 °F 53.6 °F 68% 29.95 in 6.2 mi ENE 16.1 mph - N/A   Mostly Cloudy
5:50 PM 62.6 °F 53.6 °F 72% 29.95 in 6.2 mi NE 15.0 mph - N/A   Mostly Cloudy
6:50 PM 60.8 °F 53.6 °F 77% 29.92 in 6.2 mi NE 16.1 mph - N/A   Mostly Cloudy
7:50 PM 60.8 °F 53.6 °F 77% 29.92 in 6.2 mi NE 16.1 mph - N/A   Mostly Cloudy
8:50 PM 59.0 °F 53.6 °F 82% 29.92 in 6.2 mi NNE 15.0 mph - N/A   Partly Cloudy
9:50 PM 59.0 °F 53.6 °F 82% 29.92 in 6.2 mi NE 17.3 mph - N/A   Mostly Cloudy
10:50 PM 57.2 °F 53.6 °F 88% 29.92 in 6.2 mi NE 20.7 mph - N/A   Scattered Clouds
11:50 PM 57.2 °F 53.6 °F 88% 29.92 in 6.2 mi NE 15.0 mph - N/A   Mostly Cloudy